Terminal Aerodrome Forecast
Issued by NWS

Home | Current Version | Previous Version | Graphics & Text | Print | Product List | Glossary On
Versions: 1 2 3 4 5 6 7 8 9 10 11 12 13 14 15 16 17 18 19 20 21 22 23 24 25 26 27 28 29 30 31 32 33 34 35 36 37 38 39 40 41 42 43 44 45 46 47 48 49 50
000
FTUS45 KBOU 210521
TAFAPA
TAF
KAPA 210521Z 2106/2206 19009KT P6SM SCT090 BKN130
     FM210800 21013KT P6SM FEW090 SCT140 BKN220
     FM211600 25006KT P6SM FEW140 SCT220
     FM212000 01007KT P6SM SCT140 BKN220
     FM212300 33008KT P6SM SCT090 BKN140
     FM220300 23010KT P6SM FEW120 SCT220=

USA.gov is the U.S. government's official web portal to all federal, state and local government web resources and services.